IGO0073 VABB-OERK

Flight info

Callsign IGO0073
Flight time N/A
Altitude 34000
Route RAXET2A SAKUN V2 SUGID N571 PARAR M628 TULBU G652 TOKRA/N0468F360 DCT ALROK DCT BOSOB/N0452F280 M321 NAGUB
Aircraft A21N/M-SDE2E3FGHIRWXY/LB1

Departure

Time 2026-04-27 11:05
Airport Chhatrapati Shivaji Maharaj International Airport (VABB)

Arrival

Time N/A
Airport King Khalid International Airport (OERK)
Time Latitude Longitude Altitude Speed Heading
2026-04-27 10:41 19.09469 72.87075 55 ft 0 kts 140°
2026-04-27 10:56 19.09474 72.87071 53 ft 4 kts 140°
2026-04-27 10:56 19.09496 72.87054 50 ft 4 kts 147°
2026-04-27 10:57 19.09519 72.87040 51 ft 4 kts 159°
2026-04-27 10:57 19.09544 72.87034 54 ft 5 kts 192°
2026-04-27 10:57 19.09557 72.87041 50 ft 1 kts 227°
2026-04-27 11:00 19.09516 72.86993 55 ft 12 kts 228°
2026-04-27 11:00 19.09455 72.86919 53 ft 15 kts 229°
2026-04-27 11:00 19.09361 72.86886 55 ft 17 kts 148°
2026-04-27 11:00 19.09306 72.86940 55 ft 11 kts 135°
2026-04-27 11:01 19.09251 72.86999 55 ft 12 kts 133°
2026-04-27 11:01 19.09199 72.87074 55 ft 14 kts 160°
2026-04-27 11:01 19.09133 72.87143 55 ft 15 kts 96°
2026-04-27 11:01 19.09118 72.87249 55 ft 13 kts 141°
2026-04-27 11:02 19.09103 72.87261 55 ft 0 kts 146°
2026-04-27 11:02 19.09099 72.87267 55 ft 4 kts 116°
2026-04-27 11:02 19.09115 72.87365 51 ft 24 kts 75°
2026-04-27 11:02 19.09141 72.87524 55 ft 18 kts 89°
2026-04-27 11:03 19.09144 72.87662 54 ft 19 kts 88°
2026-04-27 11:03 19.09142 72.87775 54 ft 12 kts 98°
2026-04-27 11:03 19.09079 72.87805 54 ft 8 kts 179°
2026-04-27 11:03 19.09016 72.87806 54 ft 10 kts 179°
2026-04-27 11:04 19.08945 72.87808 52 ft 11 kts 178°
2026-04-27 11:04 19.08888 72.87769 53 ft 8 kts 251°
2026-04-27 11:04 19.08885 72.87723 53 ft 5 kts 268°
2026-04-27 11:04 19.08882 72.87589 53 ft 48 kts 269°
2026-04-27 11:05 19.08872 72.86995 55 ft 112 kts 269°
2026-04-27 11:05 19.08860 72.85971 66 ft 161 kts 268°
2026-04-27 11:05 19.08854 72.84751 479 ft 170 kts 268°
2026-04-27 11:05 19.08844 72.83460 884 ft 184 kts 268°
2026-04-27 11:06 19.08821 72.82055 1227 ft 199 kts 270°
2026-04-27 11:06 19.08791 72.80531 1620 ft 217 kts 269°
2026-04-27 11:06 19.08761 72.78852 1903 ft 239 kts 269°
2026-04-27 11:06 19.08729 72.77060 2294 ft 253 kts 271°
2026-04-27 11:07 19.08771 72.75158 2756 ft 261 kts 282°
2026-04-27 11:07 19.09266 72.73315 3347 ft 262 kts 293°
2026-04-27 11:07 19.09810 72.71465 3944 ft 266 kts 284°
2026-04-27 11:07 19.10105 72.69525 4565 ft 269 kts 281°
2026-04-27 11:08 19.10370 72.67553 5162 ft 272 kts 281°
2026-04-27 11:08 19.10641 72.65567 5757 ft 274 kts 281°
2026-04-27 11:08 19.10919 72.63563 6331 ft 278 kts 281°
2026-04-27 11:08 19.11208 72.61529 6898 ft 280 kts 280°
2026-04-27 11:09 19.11500 72.59489 7500 ft 283 kts 280°
2026-04-27 11:09 19.11792 72.57423 8104 ft 285 kts 279°
2026-04-27 11:09 19.12085 72.55348 8765 ft 286 kts 279°
2026-04-27 11:09 19.12382 72.53260 9416 ft 288 kts 278°
2026-04-27 11:10 19.12685 72.51145 9956 ft 294 kts 278°
2026-04-27 11:10 19.12998 72.48956 10232 ft 310 kts 278°
2026-04-27 11:10 19.13326 72.46645 10458 ft 326 kts 278°
2026-04-27 11:10 19.13674 72.44213 10669 ft 343 kts 278°
2026-04-27 11:11 19.14041 72.41663 10870 ft 358 kts 278°
2026-04-27 11:11 19.14423 72.39007 11060 ft 373 kts 278°
2026-04-27 11:11 19.14819 72.36245 11242 ft 386 kts 278°
2026-04-27 11:11 19.15221 72.33427 11407 ft 397 kts 278°
2026-04-27 11:12 19.15634 72.30499 11653 ft 405 kts 278°
2026-04-27 11:12 19.16049 72.27532 12029 ft 409 kts 278°
2026-04-27 11:12 19.16468 72.24552 12415 ft 411 kts 277°
2026-04-27 11:12 19.16888 72.21554 12791 ft 414 kts 277°
2026-04-27 11:13 19.17170 72.19555 13074 ft 416 kts 277°
2026-04-27 11:13 19.17602 72.16522 13484 ft 419 kts 277°
2026-04-27 11:13 19.18039 72.13464 13837 ft 421 kts 277°
2026-04-27 11:13 19.18472 72.10392 14139 ft 424 kts 277°
2026-04-27 11:14 19.18910 72.07299 14478 ft 426 kts 277°
2026-04-27 11:14 19.19347 72.04197 14857 ft 428 kts 277°
2026-04-27 11:14 19.19783 72.01070 15262 ft 430 kts 277°
2026-04-27 11:14 19.20223 71.97936 15636 ft 432 kts 277°
2026-04-27 11:15 19.20661 71.94785 15966 ft 434 kts 277°
2026-04-27 11:15 19.21105 71.91620 16244 ft 436 kts 278°
2026-04-27 11:15 19.21552 71.88441 16518 ft 438 kts 278°
2026-04-27 11:15 19.21997 71.85242 16778 ft 440 kts 278°
2026-04-27 11:16 19.22443 71.82039 17047 ft 442 kts 278°
2026-04-27 11:16 19.22885 71.78802 17305 ft 444 kts 278°
2026-04-27 11:16 19.23335 71.75569 17577 ft 445 kts 278°
2026-04-27 11:16 19.23785 71.72345 17843 ft 447 kts 278°
2026-04-27 11:17 19.24239 71.69081 18101 ft 449 kts 278°
2026-04-27 11:17 19.24692 71.65804 18347 ft 450 kts 278°
2026-04-27 11:17 19.25146 71.62517 18607 ft 451 kts 278°
2026-04-27 11:17 19.25599 71.59238 18886 ft 451 kts 278°
2026-04-27 11:18 19.26054 71.55944 19184 ft 452 kts 278°
2026-04-27 11:18 19.26509 71.52652 19491 ft 453 kts 278°
2026-04-27 11:18 19.26956 71.49348 19782 ft 455 kts 277°
2026-04-27 11:18 19.27403 71.46028 20067 ft 456 kts 278°
2026-04-27 11:19 19.27860 71.42704 20351 ft 457 kts 278°
2026-04-27 11:19 19.28322 71.39368 20684 ft 458 kts 278°
2026-04-27 11:19 19.28783 71.36026 21084 ft 460 kts 277°
2026-04-27 11:19 19.29242 71.32675 21510 ft 461 kts 277°
2026-04-27 11:20 19.29698 71.29309 21920 ft 462 kts 277°
2026-04-27 11:20 19.30157 71.25936 22255 ft 463 kts 277°
2026-04-27 11:20 19.30614 71.22558 22554 ft 464 kts 277°
2026-04-27 11:20 19.31064 71.19173 22831 ft 466 kts 277°
2026-04-27 11:21 19.31518 71.15777 23094 ft 467 kts 277°
2026-04-27 11:21 19.31976 71.12368 23338 ft 468 kts 277°
2026-04-27 11:21 19.32435 71.08965 23609 ft 467 kts 277°
2026-04-27 11:21 19.32893 71.05589 23905 ft 465 kts 277°
2026-04-27 11:22 19.33355 71.02205 24204 ft 463 kts 277°
2026-04-27 11:22 19.33816 70.98837 24503 ft 461 kts 277°
2026-04-27 11:22 19.34269 70.95489 24808 ft 459 kts 277°
2026-04-27 11:22 19.34717 70.92153 25112 ft 456 kts 276°
2026-04-27 11:23 19.35155 70.88835 25420 ft 454 kts 276°
2026-04-27 11:23 19.35600 70.85532 25730 ft 452 kts 276°
2026-04-27 11:23 19.36042 70.82247 26047 ft 450 kts 276°
2026-04-27 11:23 19.36479 70.78980 26378 ft 447 kts 276°
2026-04-27 11:24 19.36914 70.75724 26703 ft 445 kts 276°
2026-04-27 11:24 19.37344 70.72485 27017 ft 443 kts 276°
2026-04-27 11:24 19.37771 70.69273 27329 ft 440 kts 276°
2026-04-27 11:24 19.38197 70.66067 27645 ft 438 kts 275°
2026-04-27 11:25 19.38620 70.62878 27940 ft 436 kts 275°
2026-04-27 11:25 19.39039 70.59707 28257 ft 434 kts 275°
2026-04-27 11:25 19.39455 70.56548 28567 ft 432 kts 275°
2026-04-27 11:25 19.39867 70.53409 28883 ft 430 kts 275°
2026-04-27 11:26 19.40280 70.50284 29203 ft 427 kts 275°
2026-04-27 11:26 19.40686 70.47167 29532 ft 425 kts 275°
2026-04-27 11:26 19.41092 70.44075 29842 ft 423 kts 274°
2026-04-27 11:26 19.41494 70.41022 30090 ft 421 kts 274°
2026-04-27 11:27 19.41900 70.37952 30311 ft 420 kts 274°
2026-04-27 11:27 19.42293 70.34933 30518 ft 419 kts 274°
2026-04-27 11:27 19.42683 70.31870 30724 ft 419 kts 274°
2026-04-27 11:27 19.43070 70.28816 30933 ft 418 kts 274°
2026-04-27 11:28 19.43462 70.25764 31145 ft 418 kts 274°
2026-04-27 11:28 19.43855 70.22714 31341 ft 418 kts 274°
2026-04-27 11:28 19.44252 70.19667 31547 ft 417 kts 274°
2026-04-27 11:28 19.44652 70.16616 31751 ft 417 kts 274°
2026-04-27 11:29 19.45046 70.13575 31956 ft 416 kts 274°
2026-04-27 11:29 19.45436 70.10543 32159 ft 416 kts 274°
2026-04-27 11:29 19.45829 70.07510 32343 ft 416 kts 274°
2026-04-27 11:29 19.46234 70.04480 32547 ft 415 kts 274°
2026-04-27 11:30 19.46633 70.01446 32729 ft 415 kts 274°
2026-04-27 11:30 19.47026 69.98421 32908 ft 414 kts 273°
2026-04-27 11:30 19.47417 69.95402 33084 ft 414 kts 273°
2026-04-27 11:30 19.47807 69.92378 33252 ft 413 kts 273°
2026-04-27 11:31 19.48192 69.89367 33411 ft 413 kts 273°
2026-04-27 11:31 19.48575 69.86350 33579 ft 413 kts 273°
2026-04-27 11:31 19.48961 69.83338 33733 ft 412 kts 273°
2026-04-27 11:31 19.49343 69.80341 33798 ft 413 kts 273°
2026-04-27 11:32 19.50117 69.74303 33772 ft 413 kts 273°
2026-04-27 11:32 19.50884 69.68275 33751 ft 413 kts 273°
2026-04-27 11:33 19.51651 69.62233 33756 ft 414 kts 273°
2026-04-27 11:33 19.52414 69.56182 33757 ft 414 kts 273°
2026-04-27 11:34 19.53176 69.50132 33753 ft 414 kts 273°
2026-04-27 11:34 19.53938 69.44075 33754 ft 415 kts 273°
2026-04-27 11:35 19.54707 69.38008 33754 ft 416 kts 274°
2026-04-27 11:35 19.56422 69.32079 33759 ft 429 kts 289°
2026-04-27 11:36 19.59160 69.26430 33757 ft 431 kts 291°
2026-04-27 11:36 19.61899 69.20804 33753 ft 431 kts 291°
2026-04-27 11:37 19.64626 69.15131 33752 ft 431 kts 290°
2026-04-27 11:37 19.67332 69.09448 33758 ft 432 kts 291°
2026-04-27 11:38 19.70069 69.03764 33754 ft 433 kts 291°
2026-04-27 11:38 19.72807 68.98070 33753 ft 434 kts 291°
2026-04-27 11:39 19.75542 68.92362 33752 ft 434 kts 291°
2026-04-27 11:39 19.78275 68.86637 33751 ft 435 kts 291°
2026-04-27 11:40 19.80997 68.80934 33755 ft 436 kts 291°
2026-04-27 11:40 19.83738 68.75190 33751 ft 437 kts 291°
2026-04-27 11:41 19.86488 68.69427 33749 ft 438 kts 291°
2026-04-27 11:41 19.89226 68.63672 33754 ft 438 kts 292°
2026-04-27 11:42 19.91982 68.57891 33755 ft 439 kts 292°
2026-04-27 11:42 19.94748 68.52044 33753 ft 440 kts 292°
2026-04-27 11:43 19.97478 68.46257 33752 ft 441 kts 292°
2026-04-27 11:43 20.00261 68.40392 33757 ft 442 kts 292°
2026-04-27 11:44 20.03040 68.34549 33753 ft 443 kts 293°
2026-04-27 11:44 20.05822 68.28695 33751 ft 444 kts 292°
2026-04-27 11:45 20.08132 68.23816 33753 ft 445 kts 293°
2026-04-27 11:45 20.11383 68.16930 33755 ft 446 kts 293°
2026-04-27 11:46 20.14172 68.11023 33756 ft 447 kts 293°
2026-04-27 11:46 20.16946 68.05135 33743 ft 448 kts 293°
2026-04-27 11:47 20.19724 67.99241 33747 ft 449 kts 293°